World > North America > United States > New Mexico
Hourly regional weather for Cantonment Burgwin-1852-1860 Historical Marker, New MexicoCantonment Burgwin-1852-1860 Historical Marker, New Mexico Regional Hourly Weather

Cantonment Burgwin-1852-1860 Historical Marker, New Mexico Regional Weather

regional weather cantonment burgwin-1852-1860 historical marker, nmHOURLY REGIONAL WEATHER FOR CANTONMENT BURGWIN-1852-1860 HISTORICAL MARKER, NM
Lat: 36.28N, Lon: 105.58W 
Web Search
Cantonment Burgwin-1852-1860 Historical Marker Weather Warning NWS WEATHER ALERT FOR THE CANTONMENT BURGWIN-1852-1860 HISTORICAL MARKER, NM AREA - Issued: 316 AM MST Fri Dec 3 2021 Cantonment Burgwin-1852-1860 Historical Marker Weather Warning  

Helpful Tip: Abbreviated, 7 Day, 14 Day Forecasts. There is a weather forecast for every taste.

Feedback


°F Click to change Cantonment Burgwin-1852-1860 Historical Marker hourly weather to Imperial units.Click to change Cantonment Burgwin-1852-1860 Historical Marker hourly weather to Metric units. °C
Cantonment Burgwin-1852-1860 Historical Marker Weather Map
UTC Time: 12/4/2021, 04:37
Your Time:

Cantonment Burgwin-1852-1860 Historical Marker, NM Regional Weather

Expires:202112040500;;862137
ASUS45 KABQ 040410
RWRNM 
NEW MEXICO REGIONAL WEATHER ROUNDUP
NATIONAL WEATHER SERVICE ALBUQUERQUE NM
900 PM MST FRI DEC 03 2021

NOTE: "FAIR" MEANS FEW OR NO CLOUDS BELOW 12,000 FEET AGL WITH NO
       SIGNIFICANT WEATHER OR OBSTRUCTIONS TO VISION.

      THIS PRODUCT IS RELEASED AS TWO VERSIONS.  ONE VERSION NEAR
      THE TOP OF THE HOUR CONTAINING PRELIMINARY DATA FROM ALBUQUERQUE
      AND OTHER STATIONS.  A FINAL VERSION WITH ADDITIONAL DATA IS 
      ISSUED ABOUT 10 MINUTES AFTER THE HOUR.
 

NMZ201-203-204-210>218-040500-
NORTHWEST PLATEAU/NORTHCENTRAL MOUNTAINS
  
CITY           SKY/WX    TMP DP  RH WIND       PRES   REMARKS
FARMINGTON     FAIR      34  18  52 NE7       30.20R WCI  28          
LOS ALAMOS     FAIR      49  20  31 CALM      30.24S                  
SANTA FE       FAIR      41  21  44 CALM      30.21R                  
TAOS           FAIR      39  14  36 E6        30.25R WCI  35          
ANGEL FIRE     FAIR      20  12  73 CALM      30.31S                  

$$

SKY/WX - Weather  TMP - Temperature  DP - Dew Point  RH - Relative Humidity
WIND - Wind Direction/Speed PRES - Barometric Pressure VSB - Visibility
WCI - Wind Chill Index E13G22 Wind - East Wind 13 mph/Gusts of 22 mph